| time (UTC) | temp F | wind direction | speed MPH | gust MPH | rain 1hr in | rain 24hr in | rain mn in | humidity % | barometer mb |
| 20260507002805 | 67 | 154 | 2.0 | 6.0 | 0.00 | 0.08 | 0.08 | 84 | 1009.8 |
| 20260507001305 | 68 | 152 | 4.0 | 6.0 | 0.00 | 0.08 | 0.08 | 82 | 1009.6 |
| 20260507000306 | 68 | 158 | 2.0 | 6.0 | 0.00 | 0.08 | 0.08 | 82 | 1009.6 |
| 20260506235804 | 68 | 179 | 2.0 | 6.0 | 0.00 | 0.08 | 0.08 | 82 | 1009.6 |
| 20260506235306 | 68 | 158 | 3.0 | 6.0 | 0.00 | 0.08 | 0.08 | 82 | 1009.1 |
| 20260506233805 | 69 | 190 | 2.0 | 3.0 | 0.00 | 0.08 | 0.08 | 82 | 1009.1 |
| 20260506232805 | 69 | 175 | 3.0 | 5.0 | 0.00 | 0.08 | 0.08 | 82 | 1009.0 |
| 20260506231305 | 69 | 159 | 2.0 | 3.0 | 0.00 | 0.08 | 0.08 | 81 | 1009.0 |
| 20260506230805 | 69 | 233 | 1.0 | 3.0 | 0.00 | 0.08 | 0.08 | 81 | 1009.0 |
| 20260506230306 | 69 | 235 | 0.0 | 3.0 | 0.00 | 0.08 | 0.08 | 80 | 1009.0 |
| 20260506225306 | 69 | 167 | 1.0 | 6.0 | 0.00 | 0.08 | 0.08 | 81 | 1009.0 |
| 20260506224305 | 69 | 170 | 3.0 | 6.0 | 0.00 | 0.08 | 0.08 | 80 | 1009.0 |
| 20260506223304 | 69 | 201 | 3.0 | 5.0 | 0.00 | 0.08 | 0.08 | 80 | 1009.2 |
| 20260506222306 | 70 | 220 | 2.0 | 7.0 | 0.00 | 0.08 | 0.08 | 79 | 1009.0 |
| 20260506221304 | 70 | 162 | 3.0 | 8.0 | 0.00 | 0.08 | 0.08 | 79 | 1009.0 |
| 20260506214806 | 70 | 169 | 2.0 | 6.0 | 0.00 | 0.08 | 0.08 | 79 | 1009.0 |
| 20260506214305 | 70 | 169 | 2.0 | 7.0 | 0.00 | 0.08 | 0.08 | 79 | 1008.8 |
| 20260506213804 | 70 | 174 | 3.0 | 10.0 | 0.00 | 0.08 | 0.08 | 79 | 1008.9 |
| 20260506212805 | 70 | 208 | 2.0 | 9.0 | 0.00 | 0.08 | 0.08 | 79 | 1008.8 |
| 20260506212306 | 70 | 169 | 2.0 | 9.0 | 0.00 | 0.08 | 0.08 | 78 | 1008.7 |
| 20260506210805 | 69 | 216 | 1.0 | 5.0 | 0.00 | 0.08 | 0.08 | 79 | 1008.6 |
| 20260506205804 | 69 | 154 | 2.0 | 6.0 | 0.00 | 0.08 | 0.08 | 79 | 1008.4 |
| 20260506205306 | 69 | 172 | 3.0 | 8.0 | 0.00 | 0.08 | 0.08 | 79 | 1008.6 |
| 20260506204804 | 69 | 154 | 2.0 | 8.0 | 0.00 | 0.08 | 0.08 | 79 | 1008.4 |
| 20260506204305 | 69 | 215 | 2.0 | 8.0 | 0.00 | 0.08 | 0.08 | 79 | 1008.7 |
| 20260506203805 | 70 | 158 | 1.0 | 7.0 | 0.00 | 0.08 | 0.08 | 78 | 1008.5 |
| 20260506202804 | 70 | 178 | 3.0 | 9.0 | 0.00 | 0.08 | 0.08 | 77 | 1008.5 |
| 20260506201806 | 70 | 201 | 2.0 | 10.0 | 0.00 | 0.08 | 0.08 | 77 | 1008.4 |
| 20260506195805 | 70 | 201 | 3.0 | 12.0 | 0.00 | 0.08 | 0.08 | 77 | 1008.6 |
| 20260506194305 | 70 | 203 | 2.0 | 15.0 | 0.00 | 0.08 | 0.08 | 79 | 1008.5 |
| 20260506193805 | 69 | 197 | 7.0 | 15.0 | 0.01 | 0.08 | 0.08 | 77 | 1008.6 |
| 20260506193306 | 70 | 197 | 2.0 | 12.0 | 0.01 | 0.08 | 0.08 | 78 | 1008.6 |
| 20260506192806 | 70 | 196 | 4.0 | 14.0 | 0.01 | 0.08 | 0.08 | 78 | 1008.7 |
| 20260506191805 | 70 | 121 | 2.0 | 13.0 | 0.01 | 0.08 | 0.08 | 78 | 1008.8 |
| 20260506190304 | 68 | 204 | 5.0 | 12.0 | 0.01 | 0.08 | 0.08 | 81 | 1009.0 |
| 20260506185306 | 68 | 169 | 3.0 | 12.0 | 0.01 | 0.08 | 0.08 | 81 | 1009.1 |
| 20260506184804 | 68 | 216 | 3.0 | 20.0 | 0.01 | 0.08 | 0.08 | 82 | 1009.1 |
| 20260506184304 | 67 | 230 | 7.0 | 20.0 | 0.01 | 0.08 | 0.08 | 81 | 1009.1 |
| 20260506183304 | 67 | 185 | 6.0 | 13.0 | 0.00 | 0.07 | 0.07 | 83 | 1009.2 |
| 20260506182804 | 67 | 179 | 5.0 | 13.0 | 0.00 | 0.07 | 0.07 | 83 | 1009.2 |
| 20260506174304 | 64 | 201 | 3.0 | 12.0 | 0.00 | 0.07 | 0.07 | 88 | 1009.5 |
| 20260506173804 | 64 | 166 | 4.0 | 13.0 | 0.00 | 0.07 | 0.07 | 88 | 1009.5 |
| 20260506173305 | 64 | 171 | 7.0 | 13.0 | 0.00 | 0.07 | 0.07 | 89 | 1009.4 |
| 20260506172805 | 64 | 188 | 5.0 | 12.0 | 0.00 | 0.07 | 0.07 | 90 | 1009.5 |
| 20260506171305 | 63 | 191 | 3.0 | 13.0 | 0.00 | 0.07 | 0.07 | 91 | 1009.5 |
| 20260506165306 | 62 | 155 | 4.0 | 16.0 | 0.00 | 0.07 | 0.07 | 92 | 1009.6 |
| 20260506164805 | 62 | 201 | 4.0 | 16.0 | 0.00 | 0.07 | 0.07 | 92 | 1009.8 |
| 20260506164304 | 62 | 186 | 7.0 | 15.0 | 0.00 | 0.07 | 0.07 | 92 | 1009.6 |
| 20260506163304 | 62 | 179 | 4.0 | 15.0 | 0.00 | 0.07 | 0.07 | 93 | 1009.6 |
| 20260506162306 | 62 | 157 | 5.0 | 15.0 | 0.00 | 0.07 | 0.07 | 93 | 1009.9 |
| 20260506161805 | 62 | 196 | 5.0 | 15.0 | 0.00 | 0.07 | 0.07 | 93 | 1009.8 |
| 20260506155306 | 61 | 155 | 6.0 | 12.0 | 0.03 | 0.07 | 0.07 | 93 | 1010.0 |
| 20260506154305 | 61 | 169 | 5.0 | 12.0 | 0.03 | 0.07 | 0.07 | 94 | 1009.7 |
| 20260506153805 | 61 | 154 | 6.0 | 12.0 | 0.04 | 0.07 | 0.07 | 93 | 1010.1 |
| 20260506152804 | 61 | 162 | 6.0 | 12.0 | 0.04 | 0.07 | 0.07 | 93 | 1010.3 |
| 20260506150805 | 61 | 154 | 4.0 | 12.0 | 0.05 | 0.07 | 0.07 | 93 | 1010.5 |
| 20260506150305 | 61 | 165 | 5.0 | 12.0 | 0.04 | 0.06 | 0.06 | 92 | 1010.6 |
| 20260506145805 | 62 | 156 | 5.0 | 12.0 | 0.03 | 0.05 | 0.05 | 92 | 1010.7 |
| 20260506145306 | 61 | 155 | 4.0 | 12.0 | 0.02 | 0.04 | 0.04 | 92 | 1010.6 |
| 20260506142306 | 62 | 159 | 5.0 | 12.0 | 0.02 | 0.02 | 0.02 | 92 | 1010.5 |
| 20260506141305 | 62 | 157 | 4.0 | 12.0 | 0.02 | 0.02 | 0.02 | 91 | 1010.6 |
| 20260506133805 | 63 | 163 | 5.0 | 12.0 | 0.01 | 0.01 | 0.01 | 86 | 1010.8 |
| 20260506132805 | 63 | 155 | 4.0 | 12.0 | 0.01 | 0.01 | 0.01 | 85 | 1010.8 |
| 20260506131305 | 64 | 153 | 5.0 | 8.0 | 0.00 | 0.00 | 0.00 | 83 | 1010.6 |
| 20260506130806 | 64 | 153 | 3.0 | 12.0 | 0.00 | 0.00 | 0.00 | 83 | 1010.4 |
| 20260506124804 | 64 | 174 | 3.0 | 14.0 | 0.00 | 0.00 | 0.00 | 82 | 1010.5 |
| 20260506124305 | 64 | 166 | 3.0 | 14.0 | 0.00 | 0.00 | 0.00 | 81 | 1010.5 |
| 20260506123304 | 64 | 163 | 3.0 | 8.0 | 0.00 | 0.00 | 0.00 | 81 | 1010.8 |
| 20260506122804 | 64 | 164 | 4.0 | 10.0 | 0.00 | 0.00 | 0.00 | 80 | 1010.9 |
| 20260506122306 | 65 | 180 | 4.0 | 10.0 | 0.00 | 0.00 | 0.00 | 79 | 1011.0 |
| 20260506121804 | 65 | 167 | 4.0 | 10.0 | 0.00 | 0.00 | 0.00 | 79 | 1011.0 |
| 20260506121306 | 65 | 154 | 5.0 | 12.0 | 0.00 | 0.00 | 0.00 | 78 | 1011.0 |
| 20260506120804 | 65 | 167 | 6.0 | 12.0 | 0.00 | 0.00 | 0.00 | 77 | 1010.9 |
| 20260506120306 | 65 | 139 | 5.0 | 12.0 | 0.00 | 0.00 | 0.00 | 77 | 1010.9 |
| 20260506115805 | 66 | 183 | 3.0 | 9.0 | 0.00 | 0.00 | 0.00 | 77 | 1010.9 |
| 20260506114805 | 66 | 171 | 6.0 | 12.0 | 0.00 | 0.00 | 0.00 | 77 | 1010.7 |
| 20260506113804 | 66 | 148 | 6.0 | 9.0 | 0.00 | 0.00 | 0.00 | 77 | 1010.5 |
| 20260506112804 | 66 | 152 | 5.0 | 12.0 | 0.00 | 0.00 | 0.00 | 77 | 1010.4 |
| 20260506111804 | 65 | 167 | 5.0 | 14.0 | 0.00 | 0.00 | 0.00 | 77 | 1010.4 |
| 20260506111304 | 65 | 162 | 5.0 | 14.0 | 0.00 | 0.00 | 0.00 | 77 | 1010.4 |
| 20260506110805 | 65 | 193 | 4.0 | 14.0 | 0.00 | 0.00 | 0.00 | 77 | 1010.4 |
| 20260506104805 | 65 | 156 | 7.0 | 15.0 | 0.00 | 0.00 | 0.00 | 77 | 1010.1 |
| 20260506104305 | 65 | 169 | 7.0 | 15.0 | 0.00 | 0.00 | 0.00 | 77 | 1010.1 |
| 20260506102305 | 64 | 155 | 7.0 | 12.0 | 0.00 | 0.00 | 0.00 | 78 | 1010.0 |
| 20260506101305 | 64 | 153 | 5.0 | 12.0 | 0.00 | 0.00 | 0.00 | 78 | 1010.0 |
| 20260506100804 | 64 | 166 | 6.0 | 12.0 | 0.00 | 0.00 | 0.00 | 77 | 1010.1 |
| 20260506100305 | 65 | 148 | 4.0 | 12.0 | 0.00 | 0.00 | 0.00 | 77 | 1010.2 |
| 20260506095804 | 65 | 154 | 5.0 | 12.0 | 0.00 | 0.00 | 0.00 | 77 | 1010.1 |
| 20260506093304 | 65 | 147 | 4.0 | 12.0 | 0.00 | 0.00 | 0.00 | 76 | 1010.2 |
| 20260506091305 | 66 | 158 | 3.0 | 12.0 | 0.00 | 0.00 | 0.00 | 75 | 1010.1 |
| 20260506090805 | 66 | 161 | 5.0 | 12.0 | 0.00 | 0.00 | 0.00 | 74 | 1010.2 |
| 20260506084805 | 66 | 142 | 5.0 | 15.0 | 0.00 | 0.00 | 0.00 | 74 | 1010.4 |
| 20260506083304 | 66 | 162 | 4.0 | 9.0 | 0.00 | 0.00 | 0.00 | 72 | 1010.3 |
| 20260506082805 | 67 | 141 | 5.0 | 10.0 | 0.00 | 0.00 | 0.00 | 72 | 1010.3 |
| 20260506080805 | 67 | 172 | 5.0 | 12.0 | 0.00 | 0.00 | 0.00 | 70 | 1010.1 |
| 20260506080304 | 68 | 159 | 7.0 | 12.0 | 0.00 | 0.00 | 0.00 | 69 | 1010.2 |
| 20260506072306 | 69 | 178 | 5.0 | 10.0 | 0.00 | 0.00 | 0.00 | 66 | 1010.5 |
| 20260506070805 | 69 | 155 | 4.0 | 10.0 | 0.00 | 0.00 | 0.00 | 65 | 1010.5 |
| 20260506062306 | 70 | 163 | 4.0 | 12.0 | 0.00 | 0.00 | 0.00 | 62 | 1010.8 |
| 20260506061804 | 70 | 164 | 4.0 | 12.0 | 0.00 | 0.00 | 0.00 | 61 | 1010.8 |
| 20260506061306 | 70 | 162 | 6.0 | 12.0 | 0.00 | 0.00 | 0.00 | 61 | 1010.8 |
| 20260506060804 | 70 | 181 | 5.0 | 12.0 | 0.00 | 0.00 | 0.00 | 61 | 1010.8 |
| 20260506050804 | 71 | 174 | 6.0 | 18.0 | 0.00 | 0.00 | 0.00 | 58 | 1011.2 |
| 20260506044304 | 69 | 151 | 4.0 | 8.0 | 0.00 | 0.00 | 0.00 | 61 | 1011.3 |
| 20260506043805 | 69 | 185 | 3.0 | 10.0 | 0.00 | 0.00 | 0.00 | 61 | 1011.3 |
| 20260506041306 | 67 | 174 | 2.0 | 7.0 | 0.00 | 0.00 | 0.00 | 62 | 1011.2 |
| 20260506040815 | 67 | 157 | 3.0 | 7.0 | 0.00 | 0.00 | 0.00 | 62 | 1011.3 |
| 20260506040305 | 66 | 142 | 3.0 | 5.0 | 0.00 | 0.00 | 0.00 | 63 | 1011.4 |
| 20260506035804 | 66 | 152 | 2.0 | 3.0 | 0.00 | 0.00 | 0.00 | 63 | 1011.3 |
| 20260506035306 | 66 | 144 | 2.0 | 3.0 | 0.00 | 0.00 | 0.00 | 63 | 1011.3 |
| 20260506034305 | 66 | 159 | 2.0 | 5.0 | 0.00 | 0.00 | 0.00 | 63 | 1011.4 |
| 20260506031804 | 66 | 175 | 2.0 | 6.0 | 0.00 | 0.00 | 0.00 | 63 | 1011.3 |
| 20260506031304 | 65 | 155 | 2.0 | 3.0 | 0.00 | 0.00 | 0.00 | 64 | 1011.3 |
| 20260506030804 | 66 | 157 | 2.0 | 5.0 | 0.00 | 0.00 | 0.00 | 64 | 1011.3 |
| 20260506030304 | 65 | 156 | 1.0 | 5.0 | 0.00 | 0.00 | 0.00 | 64 | 1011.3 |
| 20260506024306 | 66 | 157 | 1.0 | 5.0 | 0.00 | 0.00 | 0.00 | 64 | 1011.4 |
| 20260506023804 | 66 | 158 | 2.0 | 3.0 | 0.00 | 0.00 | 0.00 | 65 | 1011.4 |
| 20260506022306 | 66 | 155 | 2.0 | 8.0 | 0.00 | 0.00 | 0.00 | 65 | 1011.5 |
| 20260506021805 | 66 | 148 | 1.0 | 3.0 | 0.00 | 0.00 | 0.00 | 67 | 1011.4 |
| 20260506021304 | 65 | 148 | 1.0 | 3.0 | 0.00 | 0.00 | 0.00 | 69 | 1011.4 |
| 20260506020804 | 65 | 144 | 0.0 | 0.0 | 0.00 | 0.00 | 0.00 | 70 | 1011.5 |
| 20260506020304 | 65 | 115 | 0.0 | 0.0 | 0.00 | 0.00 | 0.00 | 71 | 1011.4 |
| 20260506014806 | 66 | 114 | 0.0 | 0.0 | 0.00 | 0.00 | 0.00 | 71 | 1011.3 |
| 20260506012307 | 68 | 94 | 0.0 | 0.0 | 0.00 | 0.00 | 0.00 | 65 | 1011.1 |
| 20260506011804 | 68 | 96 | 0.0 | 2.0 | 0.00 | 0.00 | 0.00 | 64 | 1011.1 |
| 20260506005804 | 70 | 113 | 1.0 | 3.0 | 0.00 | 0.00 | 0.00 | 57 | 1010.8 |